Location: Newark
(25.4800°N, 85.7200°E)
Time: 17:27:06
(UTC+00:00)

Transit 4A - Pass Details

Date: 02 September 2019
Orbit: 865 x 979 km, 66.8° (Epoch: 22 September)

Event Time Altitude Azimuth Distance (km) Brightness Sun altitude
Rises 18:11:28 0° 356° (N) 3,580 11.5 -56.7°
Enters shadow 18:12:04 - 359° (N) 3,397 11.3 -56.7°
Reaches altitude 10° 18:14:55 10° 15° (NNE) 2,610 - -56.7°
Maximum altitude 18:18:55 18° 57° (ENE) 2,067 - -56.7°
Drops below altitude 10° 18:22:49 10° 98° (E) 2,554 - -56.7°
Sets 18:26:08 0° 117° (ESE) 3,472 - -56.6°
